Location: Ottawa
(45.4170°N, 75.7000°W)
Time: 10:54:28
(UTC-04:00)

ISS - Visible Passes

Search period start: 21 September 2023 00:00
Search period end: 01 October 2023 00:00
Orbit: 414 x 422 km, 51.6° (Epoch: 21 September)

Date Brightness Start Highest point End Pass type
(mag) Time Alt. Az. Time Alt. Az. Time Alt. Az.
21 Sep -2.1 21:03:45 10° WNW 21:06:40 27° N 21:06:49 27° N visible
22 Sep -2.1 20:15:39 10° WNW 20:18:34 27° N 20:20:39 15° NE visible
22 Sep -0.7 21:52:43 10° NW 21:53:34 16° NW 21:53:34 16° NW visible
23 Sep -2.2 19:27:28 10° WNW 19:30:26 29° N 19:33:25 10° NE visible
23 Sep -2.2 21:04:45 10° NW 21:07:22 31° N 21:07:22 31° N visible
24 Sep -2.3 20:16:42 10° NW 20:19:40 28° N 20:21:08 20° NE visible
24 Sep -0.5 21:53:27 10° WNW 21:54:03 14° WNW 21:54:03 14° WNW visible
25 Sep -2.2 19:28:33 10° WNW 19:31:28 27° N 19:34:23 10° ENE visible
25 Sep -2.4 21:05:27 10° NW 21:07:47 37° NNW 21:07:47 37° NNW visible
26 Sep -2.9 20:17:23 10° NW 20:20:34 38° NNE 20:21:32 30° ENE visible
26 Sep -0.4 21:54:09 10° WNW 21:54:27 12° WNW 21:54:27 12° WNW visible
27 Sep -2.5 19:29:17 10° NW 19:32:20 32° NNE 19:35:16 11° ENE visible
27 Sep -2.3 21:05:59 10° WNW 21:08:11 38° WNW 21:08:11 38° WNW visible
28 Sep -3.8 20:17:52 10° WNW 20:21:12 70° NNE 20:21:56 49° E visible
29 Sep -3.3 19:29:42 10° NW 19:32:59 49° NNE 19:35:43 14° E visible
29 Sep -1.7 21:06:38 10° WNW 21:08:38 26° WSW 21:08:38 26° WSW visible
30 Sep -3.2 20:18:16 10° WNW 20:21:32 51° SW 20:22:28 37° SSE visible
